Weather History for KPVD - March, 2013

Change the Weather History Date:

Thursday, March 14, 2013

  Actual Average Record
Temperature  
Mean Temperature 30 °F 38 °F  
Max Temperature 36 °F 47 °F 79 °F (1946)
Min Temperature 24 °F 29 °F 12 °F (1948)
Degree Days  
Heating Degree Days 35 27  
Month to date heating degree days 366 401  
Since 1 July heating degree days 4187 4463  
Cooling Degree Days 0 0  
Month to date cooling degree days 0 0  
Year to date cooling degree days 0 0  
Moisture  
Dew Point 14 °F    
Average Humidity 54    
Maximum Humidity 72    
Minimum Humidity 35    
Precipitation  
Precipitation 0.00 in 0.16 in 1.28 in (1958)
Month to date precipitation 1.14 2.07  
Year to date precipitation 8.10 9.22  
Snow  
Snow 0.00 in 0.20 in 5.90 in (1958)
Month to date snowfall 2.3 3.3  
Since 1 July snowfall 43.7 31.0  
Snow Depth 0.00 in    
Sea Level Pressure  
Sea Level Pressure 29.80 in    
Wind  
Wind Speed 13 mph (WNW)    
Max Wind Speed 29 mph    
Max Gust Speed 39 mph    
Visibility 10 miles    
Events      
T = Trace of Precipitation, MM = Missing Value Source: NWS Daily Summary

Daily Weather History Graph

Daily Weather History Graph

Search for Another Location

Airport or City:

Trip Planner

Search our weather history database for the weather conditions in past years. The results will help you decide how hot, cold, wet, or windy it might be!

Date:

Astronomy

Mar. 14, 2013 Rise Set
Actual Time 6:58 AM EDT 6:51 PM EDT
Civil Twilight 6:31 AM EDT 7:19 PM EDT
Nautical Twilight 5:58 AM EDT 7:51 PM EDT
Astronomical Twilight 5:26 AM EDT 8:24 PM EDT
Moon 8:07 AM EDT (3/14) 10:08 PM EDT (3/14)
Length of Visible Light 12h 47m
Length of Day
11h 52m
Waxing Crescent, 9% of the Moon is Illuminated
Mar 14
Waxing Crescent
Mar 19
First Quarter
Mar 27
Full
Apr 3
Last Quarter
Apr 10
New

Hourly Weather History & Observations

Time (EDT) Temp. Windchill Dew Point Humidity Pressure Visibility Wind Dir Wind Speed Gust Speed Precip Events Conditions
12:51 AM 35.1 °F 30.1 °F 23.0 °F 61% 29.78 in 10.0 mi West 5.8 mph - N/A   Scattered Clouds
1:51 AM 34.0 °F 28.8 °F 23.0 °F 64% 29.79 in 10.0 mi West 5.8 mph - N/A   Clear
2:51 AM 33.1 °F 27.7 °F 24.1 °F 70% 29.79 in 10.0 mi WSW 5.8 mph - N/A   Partly Cloudy
3:51 AM 32.0 °F 27.5 °F 23.0 °F 69% 29.78 in 10.0 mi WSW 4.6 mph - N/A   Clear
4:51 AM 32.0 °F 26.4 °F 23.0 °F 69% 29.78 in 10.0 mi West 5.8 mph - N/A   Clear
5:51 AM 30.9 °F 25.2 °F 23.0 °F 72% 29.79 in 10.0 mi West 5.8 mph - N/A   Scattered Clouds
6:51 AM 33.1 °F 27.7 °F 21.0 °F 61% 29.80 in 10.0 mi WNW 5.8 mph - N/A   Mostly Cloudy
7:51 AM 33.1 °F 26.1 °F 18.0 °F 54% 29.81 in 10.0 mi WNW 8.1 mph - N/A   Mostly Cloudy
8:51 AM 34.0 °F 26.0 °F 17.1 °F 50% 29.81 in 10.0 mi West 10.4 mph - N/A   Mostly Cloudy
9:51 AM 34.0 °F 25.0 °F 17.1 °F 50% 29.81 in 10.0 mi West 12.7 mph - N/A   Mostly Cloudy
10:51 AM 34.0 °F 25.5 °F 15.1 °F 46% 29.79 in 10.0 mi NW 11.5 mph - N/A   Mostly Cloudy
11:51 AM 35.1 °F 25.9 °F 12.9 °F 40% 29.78 in 10.0 mi WNW 13.8 mph - N/A   Mostly Cloudy
12:51 PM 33.1 °F 22.2 °F 10.9 °F 40% 29.78 in 10.0 mi West 17.3 mph 21.9 mph N/A   Overcast
1:51 PM 34.0 °F 23.0 °F 9.0 °F 35% 29.76 in 10.0 mi West 18.4 mph 25.3 mph N/A   Mostly Cloudy
2:51 PM 34.0 °F 23.4 °F 8.1 °F 34% 29.75 in 10.0 mi WNW 17.3 mph - N/A   Mostly Cloudy
3:51 PM 33.1 °F 22.2 °F 8.1 °F 35% 29.75 in 10.0 mi WNW 17.3 mph 24.2 mph N/A   Mostly Cloudy
4:51 PM 32.0 °F 20.1 °F 8.1 °F 37% 29.77 in 10.0 mi WNW 19.6 mph 29.9 mph N/A   Mostly Cloudy
5:51 PM 30.0 °F 18.3 °F 7.0 °F 38% 29.79 in 10.0 mi WNW 17.3 mph 33.4 mph N/A   Mostly Cloudy
6:51 PM 28.9 °F 14.8 °F 7.0 °F 40% 29.81 in 10.0 mi NW 24.2 mph 39.1 mph N/A   Mostly Cloudy
7:51 PM 28.9 °F 15.8 °F 9.0 °F 43% 29.83 in 10.0 mi NW 20.7 mph 31.1 mph N/A   Mostly Cloudy
8:51 PM 28.0 °F 14.3 °F 8.1 °F 43% 29.85 in 10.0 mi NNW 21.9 mph 32.2 mph N/A   Mostly Cloudy
9:51 PM 27.0 °F 13.9 °F 5.0 °F 39% 29.86 in 10.0 mi NW 18.4 mph 29.9 mph N/A   Scattered Clouds
10:51 PM 26.1 °F 16.8 °F 6.1 °F 43% 29.87 in 10.0 mi NW 9.2 mph - N/A   Scattered Clouds
11:51 PM 25.0 °F 18.1 °F 7.0 °F 46% 29.86 in 10.0 mi NW 5.8 mph - N/A   Scattered Clouds